Location: *
(46.1833°N, 22.7667°E)
Time: 01:56:48
(UTC+00:00)

Cosmos 2056 Rocket - Pass Details

Date: 17 September 2019
Orbit: 743 x 800 km, 74.0° (Epoch: 21 October)

Event Time Altitude Azimuth Distance (km) Brightness Sun altitude
Rises 18:42:43 0° 197° (SSW) 3,292 6.7 -21.6°
Reaches altitude 10° 18:45:07 10° 196° (SSW) 2,368 5.9 -22.0°
Maximum altitude 18:50:31 82° 110° (ESE) 813 3.4 -22.8°
Drops below altitude 10° 18:55:57 10° 23° (NNE) 2,376 6.1 -23.6°
Sets 18:58:21 0° 23° (NNE) 3,305 6.9 -23.9°
